Date String (YYYY-MM-DD hh:mm:ss) UTC,Instrument flags,Ambient pressure (hPa),Sample flow (lpm),Bypass flow (lpm),Sample temperature (°C),Ambient temperature (°C),ASC tube jacket temperature (°C),LED temperature (°C),Box temperature (°C),Sample RH (%),Span deviation,Mass concentration (μg/m³),Mass concentration (μg/m³),Mass concentration (μg/m³)
DateTimeUTC,F1_M11,P_M11,Q1_M11,Q2_M11,T1_M11,T2_M11,T3_M11,T4_M11,T5_M11,U1_M11,ZSPAN_M11,X0_M11,X2_M11,X1_M11
2022-06-04 18:00:00,,0821.1,4.99,0.00,29.2,27.2,00.0,38.1,31.0,22.9,0000.0,0010.68,0004.34,0003.59
2022-06-04 18:01:00,,0821.1,5.00,0.00,29.2,27.3,00.0,38.1,31.0,25.1,0000.0,0011.34,0004.30,0003.53
2022-06-04 18:02:00,,0821.2,5.00,0.00,29.2,27.5,00.0,38.1,31.0,20.3,0000.0,0010.39,0004.17,0003.43
2022-06-04 18:03:00,,0821.1,4.99,0.00,29.2,27.7,00.0,38.1,31.1,21.0,0000.0,0009.86,0004.05,0003.33
2022-06-04 18:04:00,,0821.1,4.99,0.00,29.2,27.8,00.0,38.1,31.1,20.5,0000.0,0009.34,0003.96,0003.26
2022-06-04 18:05:00,,0821.0,5.01,0.00,29.2,27.9,00.0,38.1,31.1,20.5,0000.0,0009.85,0003.93,0003.22
2022-06-04 18:06:00,,0821.0,5.01,0.00,29.3,28.1,00.0,38.1,31.2,18.5,0000.0,0010.11,0003.85,0003.15
2022-06-04 18:07:00,,0821.0,4.99,0.00,29.3,28.2,00.0,38.1,31.2,19.0,0000.0,0010.53,0003.77,0003.01
2022-06-04 18:08:00,,0821.0,4.99,0.00,29.3,28.3,00.0,38.1,31.3,18.2,0000.0,0010.34,0003.69,0002.86
2022-06-04 18:09:00,,0821.0,5.00,0.00,29.3,28.4,00.0,38.1,31.3,18.9,0000.0,0010.06,0003.59,0002.74
2022-06-04 18:10:00,,0821.0,5.00,0.00,29.4,28.5,00.0,38.1,31.3,20.7,0000.0,0010.11,0003.57,0002.67
2022-06-04 18:11:00,,0821.0,5.00,0.00,29.4,28.2,00.0,38.1,31.3,20.1,0000.0,0010.97,0003.58,0002.65
2022-06-04 18:12:00,,0821.0,5.00,0.00,29.3,27.3,00.0,38.1,31.1,19.6,0000.0,0010.52,0003.53,0002.59
2022-06-04 18:13:00,,0821.0,5.00,0.00,29.3,26.9,00.0,38.0,30.9,19.3,0000.0,0010.72,0003.54,0002.60
2022-06-04 18:14:00,,0820.9,4.99,0.00,29.2,26.9,00.0,38.0,30.9,19.4,0000.0,0010.94,0003.57,0002.64
2022-06-04 18:15:00,,0821.0,5.01,0.00,29.1,27.0,00.0,38.0,30.9,19.8,0000.0,0011.08,0003.65,0002.67
2022-06-04 18:16:00,,0821.0,4.99,0.00,29.1,27.2,00.0,38.0,30.9,20.2,0000.0,0010.85,0003.68,0002.70
2022-06-04 18:17:00,,0821.0,4.99,0.00,29.1,27.4,00.0,38.0,30.9,18.8,0000.0,0010.68,0003.69,0002.71
2022-06-04 18:18:00,,0821.0,5.00,0.00,29.1,27.5,00.0,38.0,31.0,19.4,0000.0,0010.12,0003.68,0002.73
2022-06-04 18:19:00,,0820.9,5.01,0.00,29.1,27.7,00.0,38.0,31.0,19.9,0000.0,0010.15,0003.67,0002.74
2022-06-04 18:20:00,,0821.0,5.00,0.00,29.1,27.8,00.0,38.0,31.1,19.1,0000.0,0010.28,0003.70,0002.75
2022-06-04 18:21:00,,0821.0,4.99,0.00,29.2,28.0,00.0,38.0,31.1,20.2,0000.0,0010.26,0003.70,0002.78
2022-06-04 18:22:00,,0821.0,5.01,0.00,29.2,28.1,00.0,38.0,31.2,20.0,0000.0,0009.43,0003.66,0002.79
2022-06-04 18:23:00,,0821.0,5.00,0.00,29.2,28.2,00.0,38.0,31.2,21.0,0000.0,0009.19,0003.64,0002.79
2022-06-04 18:24:00,,0821.0,5.00,0.00,29.3,28.3,00.0,38.0,31.2,20.2,0000.0,0008.45,0003.61,0002.79
2022-06-04 18:25:00,,0821.0,5.00,0.00,29.3,28.4,00.0,38.1,31.3,21.8,0000.0,0007.93,0003.62,0002.79
2022-06-04 18:26:00,,0820.9,5.00,0.00,29.3,28.5,00.0,38.1,31.3,19.5,0000.0,0008.47,0003.55,0002.78
2022-06-04 18:27:00,,0820.9,5.00,0.00,29.4,28.1,00.0,38.1,31.3,20.5,0000.0,0008.53,0003.53,0002.75
2022-06-04 18:28:00,,0820.8,5.00,0.00,29.3,27.3,00.0,38.0,31.0,22.3,0000.0,0009.06,0003.54,0002.75
2022-06-04 18:29:00,,0820.8,4.99,0.00,29.2,27.0,00.0,38.0,30.9,21.0,0000.0,0008.96,0003.55,0002.81
2022-06-04 18:30:00,,0820.8,5.00,0.00,29.2,27.0,00.0,38.0,30.9,20.5,0000.0,0008.94,0003.59,0002.85
2022-06-04 18:31:00,,0820.8,5.00,0.00,29.1,27.1,00.0,37.9,30.9,21.5,0000.0,0008.98,0003.61,0002.89
2022-06-04 18:32:00,,0820.8,5.00,0.00,29.1,27.2,00.0,37.9,30.9,22.2,0000.0,0009.70,0003.63,0002.93
2022-06-04 18:33:00,,0820.8,5.00,0.00,29.1,27.4,00.0,37.9,30.9,20.3,0000.0,0010.74,0003.67,0002.97
2022-06-04 18:34:00,,0820.8,5.00,0.00,29.1,27.6,00.0,37.9,31.0,20.2,0000.0,0010.65,0003.70,0003.02
2022-06-04 18:35:00,,0820.8,4.99,0.00,29.1,27.7,00.0,38.0,31.0,20.3,0000.0,0010.75,0003.75,0003.04
2022-06-04 18:36:00,,0820.8,4.99,0.00,29.1,27.9,00.0,38.0,31.1,20.9,0000.0,0010.87,0003.75,0003.06
2022-06-04 18:37:00,,0820.8,5.00,0.00,29.2,28.0,00.0,38.0,31.1,20.6,0000.0,0010.21,0003.77,0003.08
2022-06-04 18:38:00,,0820.8,5.02,0.00,29.2,28.1,00.0,38.0,31.2,20.6,0000.0,0009.83,0003.74,0003.09
2022-06-04 18:39:00,,0820.8,4.99,0.00,29.2,28.2,00.0,38.0,31.2,18.9,0000.0,0009.29,0003.74,0003.09
2022-06-04 18:40:00,,0820.8,5.00,0.00,29.3,28.3,00.0,38.0,31.3,18.8,0000.0,0009.66,0003.71,0003.04
2022-06-04 18:41:00,,0820.8,5.00,0.00,29.3,28.4,00.0,38.0,31.3,19.5,0000.0,0009.70,0003.66,0003.00
2022-06-04 18:42:00,,0820.8,5.01,0.00,29.3,28.5,00.0,38.1,31.3,18.9,0000.0,0010.45,0003.63,0003.00
2022-06-04 18:43:00,,0820.8,5.00,0.00,29.4,28.2,00.0,38.0,31.3,17.9,0000.0,0010.22,0003.60,0002.98
2022-06-04 18:44:00,,0820.8,5.00,0.00,29.3,27.3,00.0,38.0,31.0,17.7,0000.0,0010.05,0003.59,0002.93
2022-06-04 18:45:00,,0820.7,5.00,0.00,29.2,26.9,00.0,37.9,30.9,16.8,0000.0,0010.69,0003.58,0002.89
2022-06-04 18:46:00,,0820.7,4.99,0.00,29.2,26.9,00.0,37.9,30.9,17.5,0000.0,0010.77,0003.52,0002.86
2022-06-04 18:47:00,,0820.7,4.99,0.00,29.1,27.0,00.0,37.9,30.9,17.8,0000.0,0010.83,0003.52,0002.82
2022-06-04 18:48:00,,0820.7,4.99,0.00,29.1,27.2,00.0,37.9,30.9,18.3,0000.0,0011.06,0003.50,0002.78
2022-06-04 18:49:00,,0820.7,4.99,0.00,29.1,27.4,00.0,37.9,30.9,17.5,0000.0,0011.31,0003.52,0002.78
2022-06-04 18:50:00,,0820.6,5.00,0.00,29.1,27.5,00.0,37.9,31.0,19.4,0000.0,0011.34,0003.55,0002.79
2022-06-04 18:51:00,,0820.6,5.00,0.00,29.1,27.7,00.0,37.9,31.0,19.0,0000.0,0011.68,0003.62,0002.81
2022-06-04 18:52:00,,0820.7,5.00,0.00,29.1,27.9,00.0,37.9,31.1,17.9,0000.0,0012.21,0003.65,0002.84
2022-06-04 18:53:00,,0820.6,5.00,0.00,29.1,28.0,00.0,38.0,31.1,17.9,0000.0,0011.52,0003.68,0002.84
2022-06-04 18:54:00,,0820.7,5.00,0.00,29.2,28.1,00.0,38.0,31.2,18.4,0000.0,0012.10,0003.66,0002.83
2022-06-04 18:55:00,,0820.7,5.01,0.00,29.2,28.2,00.0,38.0,31.2,18.9,0000.0,0012.01,0003.64,0002.84
2022-06-04 18:56:00,,0820.7,5.00,0.00,29.3,28.3,00.0,38.0,31.2,20.4,0000.0,0011.95,0003.66,0002.85
2022-06-04 18:57:00,,0820.7,5.00,0.00,29.3,28.4,00.0,38.0,31.3,19.3,0000.0,0011.88,0003.73,0002.88
2022-06-04 18:58:00,,0820.7,4.99,0.00,29.3,28.5,00.0,38.1,31.3,18.1,0000.0,0011.71,0003.73,0002.93
2022-06-04 18:59:00,,0820.7,5.00,0.00,29.3,28.2,00.0,38.0,31.2,20.2,0000.0,0011.51,0003.72,0002.96
